Retour au catalogue

STARLINK-11169

ActifCommunicationsVLEO
NORAD 60064·PAYLOAD·🇺🇸 United States

Lancé Jun 19, 2024 depuis Vandenberg Space Force Base

Loading…

Prochains Passages (prochaines 24 heures)

TLE

FraisSource: CelesTrak SupGP

Époque: Sep 14, 2026, 13:48 UTC

1 60064C 24113F   26257.57548611  .00055462  00000+0  45756-3 0  2574
2 60064  53.1569 339.9217 0001202  52.6404 174.7469 15.69644419    15

Suivez STARLINK-11169 en temps réel avec AllMySat

Download on the App Store